Regional Weather Roundup
Issued by NWS

Home | Current Version | Previous Version | Graphics & Text | Print | Product List | Glossary On
Versions: 1 2 3 4 5 6 7 8 9 10 11 12 13 14 15 16 17 18 19 20 21 22 23 24 25 26 27 28 29 30 31 32 33 34 35 36 37 38 39 40 41 42 43 44 45 46 47 48 49 50
776
ASUS45 KSLC 270810
RWRUT

UTAH REGIONAL WEATHER ROUNDUP
NATIONAL WEATHER SERVICE SALT LAKE CITY UT
200 AM MDT FRI APR 27 2018

UTZ001>011-023>025-270900-

NORTHERN UTAH

CITY           SKY/WX    TMP DP  RH WIND       PRES   REMARKS
BRIGHAM CITY   CLEAR     49  32  51 N6        30.05S
HILL AFB       CLEAR     56  27  33 E3        30.06S
LOGAN          CLEAR     43  35  73 CALM      30.07F
OGDEN          CLEAR     57  29  34 S12       30.04S
SALT LAKE CITY CLEAR     57  36  45 S8        30.03F
TOOELE VALLEY  CLEAR     50  32  50 S9        30.05F
WENDOVER       PTCLDY    51  26  37 W3        30.03F
HEBER CITY       N/A     41  25  52 CALM      30.14S
WEST JORDAN    CLEAR     48  34  57 SE3       30.06F

$$

UTZ011>015-024>027-270900-

CENTRAL/NORTHEAST UTAH

CITY           SKY/WX    TMP DP  RH WIND       PRES   REMARKS
PROVO AIRPORT  CLEAR     58  39  49 W9        30.07S
MOAB/CANYONLAN CLEAR     61  18  18 E10       30.06S
DELTA          PTCLDY    45  32  61 NE5       30.04F
PRICE          CLEAR     51  15  23 NW3       30.15S
ROOSEVELT      CLEAR     37  30  75 SW6       30.19F WCI  33
VERNAL         CLEAR     46  27  47 NW5       30.17S

$$

UTZ013>016-019>022-027-270900-

SOUTHERN UTAH

CITY           SKY/WX    TMP DP  RH WIND       PRES   REMARKS
BRYCE CANYON   PTCLDY    38  22  52 W9        30.23S WCI  31
CEDAR CITY     CLEAR     49  28  44 CALM      30.07F
MILFORD        CLEAR     44  25  47 SW8       30.06R
ST GEORGE      SUNNY     70  23  17 SE6       29.92R
HANKSVILLE     CLEAR     48  10  21 CALM      30.09F
BLANDING         N/A     53  16  22 N6        30.19S

$$

REGIONAL REPORTS     COLORADO/ARIZONA

CITY           SKY/WX    TMP DP  RH WIND       PRES   REMARKS
CRAIG, CO      CLEAR     31  26  82 CALM      30.23F
GRAND JUNCTION CLEAR     50  22  33 CALM      30.11F
RIFLE, CO      CLEAR     40  26  57 CALM      30.19S
MONTROSE, CO   CLEAR     43  21  41 SE8       30.18F
CORTEZ, CO     PTCLDY    33  11  39 E3        30.13F
COLORADO CITY    N/A     68  14  12 NE12G17   30.05S
PAGE, AZ       MOCLDY    63  14  15 SE3       30.02F
GRAND CANYON   HAZE      44  15  31 CALM      30.16F VSB 1
KINGMAN, AZ    CLEAR     70  25  18 SE10      29.95R
FLAGSTAFF, AZ  CLEAR     44  22  41 SW3       30.19F

$$

REGIONAL REPORTS    NEVADA/IDAHO/WYOMING

CITY           SKY/WX    TMP DP  RH WIND       PRES   REMARKS
LAS VEGAS, NV  MOCLDY    79  23  12 SW5       29.81F
ELY, NY        CLEAR     40  19  43 S6        30.12S
ELKO, NV       PTCLDY    51  22  31 E5        30.01F
POCATELLO, ID  CLEAR     41  33  73 SW3       30.07F
BURLEY, ID     CLEAR     39  32  76 W3        30.02F
FORT BRIDGER,    N/A     42  11  28 S9        30.23F
EVANSTON, WY   CLEAR     46  20  35 SE8       30.20F
ROCK SPRINGS,  CLEAR     43  13  29 SE8       30.22F
KEMMERER, WY   CLEAR     36  21  55 N9        30.23S WCI  29

$$




USA.gov is the U.S. government's official web portal to all federal, state and local government web resources and services.